Private Wetterstation Wechselburg
Wetterdaten: Dienstag, 16.10.2012
Datum Zeit Temp. +2m Bodentemp. Temp.+5cm Temp. Wind Windchill X Diff Temp. Feuchte +2m Feuchte +5cm Sonnenschein Luftdruck Regen Wind Richtung Richtung Sonnenschein UV Taupunkt Windchill Windben
16.10.2012 00:00 6,2 C 15,6 C 7,2 C 6,8 C 6,8 C 0,6 C 82 % 84 % 0 % 1013,9 hPa 0,0 l/m 0,3 km/h (0 Bft) S 180 0 min 0,0 UV-I 3,4 C 6,8 C 0,0 km/h (0 Bft)
16.10.2012 00:05 6,1 C 15,6 C 7,2 C 6,7 C 6,7 C 0,6 C 82 % 85 % 0 % 1014,2 hPa 0,0 l/m 0,3 km/h (0 Bft) S-SW 202 0 min 0,0 UV-I 3,3 C 6,7 C 0,0 km/h (0 Bft)
16.10.2012 00:10 6,2 C 15,6 C 7,3 C 6,6 C 6,6 C 0,4 C 82 % 85 % 0 % 1014,2 hPa 0,0 l/m 0,6 km/h (0 Bft) SO 135 0 min 0,0 UV-I 3,4 C 6,6 C 1,6 km/h (1 Bft)
16.10.2012 00:15 6,3 C 15,6 C 7,3 C 6,6 C 6,6 C 0,3 C 82 % 85 % 0 % 1014,2 hPa 0,0 l/m 0,8 km/h (0 Bft) S 180 0 min 0,0 UV-I 3,5 C 6,6 C 0,0 km/h (0 Bft)
16.10.2012 00:20 6,3 C 15,6 C 7,3 C 6,6 C 6,6 C 0,3 C 82 % 85 % 0 % 1014,2 hPa 0,0 l/m 1,0 km/h (0 Bft) SO 135 0 min 0,0 UV-I 3,5 C 6,6 C 0,0 km/h (0 Bft)
16.10.2012 00:25 6,3 C 15,6 C 7,3 C 6,4 C 6,4 C 0,1 C 82 % 85 % 0 % 1014,1 hPa 0,0 l/m 0,6 km/h (0 Bft) SO 135 0 min 0,0 UV-I 3,5 C 6,4 C 0,0 km/h (0 Bft)
16.10.2012 00:30 6,1 C 15,6 C 7,1 C 6,1 C 6,1 C 0,0 C 82 % 85 % 0 % 1014,1 hPa 0,0 l/m 0,3 km/h (0 Bft) S-SO 157 0 min 0,0 UV-I 3,3 C 6,1 C 0,0 km/h (0 Bft)
16.10.2012 00:35 6,0 C 15,6 C 6,9 C 6,0 C 5,9 C 0,0 C 82 % 85 % 0 % 1014,1 hPa 0,0 l/m 0,2 km/h (0 Bft) W 270 0 min 0,0 UV-I 3,2 C 5,9 C 0,0 km/h (0 Bft)
16.10.2012 00:41 5,9 C 15,6 C 6,7 C 5,7 C 5,4 C 0,0 C 82 % 85 % 0 % 1014,2 hPa 0,0 l/m 0,6 km/h (0 Bft) N 0 0 min 0,0 UV-I 3,1 C 5,4 C 0,0 km/h (0 Bft)
16.10.2012 00:55 5,5 C 15,7 C 6,3 C 5,4 C 5,1 C 0,0 C 82 % 85 % 0 % 1014,2 hPa 0,0 l/m 0,0 km/h (0 Bft) O-NO 67 0 min 0,0 UV-I 2,7 C 5,1 C 0,0 km/h (0 Bft)
16.10.2012 01:00 5,4 C 15,8 C 6,0 C 5,2 C 4,7 C 0,0 C 82 % 85 % 0 % 1014,2 hPa 0,0 l/m 0,0 km/h (0 Bft) O-NO 67 0 min 0,0 UV-I 2,6 C 4,7 C 0,0 km/h (0 Bft)
16.10.2012 01:05 5,2 C 15,8 C 5,9 C 5,0 C 4,5 C 0,0 C 83 % 85 % 0 % 1014,4 hPa 0,0 l/m 0,0 km/h (0 Bft) N-NO 22 0 min 0,0 UV-I 2,6 C 4,5 C 0,0 km/h (0 Bft)
16.10.2012 01:10 5,1 C 15,8 C 5,9 C 4,9 C 4,4 C 0,0 C 83 % 86 % 0 % 1014,4 hPa 0,0 l/m 0,0 km/h (0 Bft) O-NO 67 0 min 0,0 UV-I 2,5 C 4,4 C 0,0 km/h (0 Bft)
16.10.2012 01:15 4,9 C 15,8 C 5,7 C 4,7 C 4,3 C 0,0 C 83 % 86 % 0 % 1014,4 hPa 0,0 l/m 0,0 km/h (0 Bft) O-NO 67 0 min 0,0 UV-I 2,3 C 4,3 C 0,0 km/h (0 Bft)
16.10.2012 01:20 4,8 C 15,8 C 5,6 C 4,6 C 4,2 C 0,0 C 83 % 86 % 0 % 1014,4 hPa 0,0 l/m 0,0 km/h (0 Bft) O-NO 67 0 min 0,0 UV-I 2,2 C 4,2 C 0,0 km/h (0 Bft)
16.10.2012 01:25 4,7 C 15,8 C 5,5 C 4,5 C 4,2 C 0,0 C 84 % 86 % 0 % 1014,4 hPa 0,0 l/m 0,0 km/h (0 Bft) O-SO 112 0 min 0,0 UV-I 2,2 C 4,2 C 0,0 km/h (0 Bft)
16.10.2012 01:30 4,5 C 15,8 C 5,5 C 4,4 C 4,1 C 0,0 C 84 % 87 % 0 % 1014,4 hPa 0,0 l/m 0,0 km/h (0 Bft) O-SO 112 0 min 0,0 UV-I 2,0 C 4,1 C 0,0 km/h (0 Bft)
16.10.2012 01:35 4,5 C 15,8 C 5,3 C 4,3 C 4,0 C 0,0 C 84 % 86 % 0 % 1014,4 hPa 0,0 l/m 0,0 km/h (0 Bft) O 90 0 min 0,0 UV-I 2,0 C 4,0 C 0,0 km/h (0 Bft)
16.10.2012 01:40 4,3 C 15,8 C 5,2 C 4,1 C 3,7 C 0,0 C 84 % 86 % 0 % 1014,4 hPa 0,0 l/m 0,0 km/h (0 Bft) O-NO 67 0 min 0,0 UV-I 1,8 C 3,7 C 0,0 km/h (0 Bft)
16.10.2012 01:45 4,3 C 15,8 C 5,0 C 4,1 C 3,6 C 0,0 C 84 % 86 % 0 % 1014,2 hPa 0,0 l/m 0,0 km/h (0 Bft) N 360 0 min 0,0 UV-I 1,8 C 3,6 C 0,0 km/h (0 Bft)
16.10.2012 01:50 4,0 C 15,8 C 4,9 C 3,8 C 3,5 C 0,0 C 85 % 87 % 0 % 1014,2 hPa 0,0 l/m 0,0 km/h (0 Bft) O-SO 112 0 min 0,0 UV-I 1,7 C 3,5 C 0,0 km/h (0 Bft)
16.10.2012 01:55 4,0 C 15,8 C 4,8 C 3,8 C 3,4 C 0,0 C 85 % 87 % 0 % 1014,2 hPa 0,0 l/m 0,0 km/h (0 Bft) O-NO 67 0 min 0,0 UV-I 1,7 C 3,4 C 0,0 km/h (0 Bft)
16.10.2012 02:00 3,9 C 15,8 C 4,8 C 3,7 C 3,3 C 0,0 C 85 % 87 % 0 % 1014,2 hPa 0,0 l/m 0,0 km/h (0 Bft) O-NO 67 0 min 0,0 UV-I 1,6 C 3,3 C 0,0 km/h (0 Bft)
16.10.2012 02:05 3,8 C 15,8 C 4,7 C 3,6 C 3,3 C 0,0 C 85 % 87 % 0 % 1014,5 hPa 0,0 l/m 0,2 km/h (0 Bft) O-NO 67 0 min 0,0 UV-I 1,5 C 3,3 C 0,0 km/h (0 Bft)
16.10.2012 02:10 3,7 C 15,8 C 4,6 C 3,6 C 3,3 C 0,0 C 85 % 88 % 0 % 1014,5 hPa 0,0 l/m 0,2 km/h (0 Bft) O-NO 67 0 min 0,0 UV-I 1,4 C 3,3 C 0,0 km/h (0 Bft)
16.10.2012 02:15 3,6 C 15,8 C 4,6 C 3,5 C 3,3 C 0,0 C 85 % 88 % 0 % 1014,5 hPa 0,0 l/m 0,2 km/h (0 Bft) O 90 0 min 0,0 UV-I 1,3 C 3,3 C 0,0 km/h (0 Bft)
16.10.2012 02:20 3,5 C 15,7 C 4,5 C 3,4 C 3,1 C 0,0 C 86 % 88 % 0 % 1014,5 hPa 0,0 l/m 0,0 km/h (0 Bft) O-NO 67 0 min 0,0 UV-I 1,4 C 3,1 C 0,0 km/h (0 Bft)
16.10.2012 02:25 3,5 C 15,8 C 4,5 C 3,3 C 3,0 C 0,0 C 86 % 88 % 0 % 1014,8 hPa 0,0 l/m 0,0 km/h (0 Bft) O-NO 67 0 min 0,0 UV-I 1,4 C 3,0 C 0,0 km/h (0 Bft)
16.10.2012 02:30 3,2 C 15,7 C 4,4 C 3,1 C 3,0 C 0,0 C 85 % 88 % 0 % 1014,8 hPa 0,0 l/m 0,0 km/h (0 Bft) O-NO 67 0 min 0,0 UV-I 0,9 C 3,0 C 0,0 km/h (0 Bft)
16.10.2012 02:35 3,2 C 15,7 C 4,4 C 3,1 C 3,0 C 0,0 C 85 % 88 % 0 % 1014,8 hPa 0,0 l/m 0,0 km/h (0 Bft) NO 45 0 min 0,0 UV-I 0,9 C 3,0 C 0,0 km/h (0 Bft)
16.10.2012 02:40 3,1 C 15,7 C 4,3 C 3,0 C 2,7 C 0,0 C 86 % 88 % 0 % 1014,8 hPa 0,0 l/m 0,0 km/h (0 Bft) N-NW 337 0 min 0,0 UV-I 1,0 C 2,7 C 0,0 km/h (0 Bft)
16.10.2012 02:45 3,1 C 15,7 C 4,2 C 3,0 C 2,7 C 0,0 C 86 % 88 % 0 % 1014,7 hPa 0,0 l/m 0,0 km/h (0 Bft) O-NO 67 0 min 0,0 UV-I 1,0 C 2,7 C 0,0 km/h (0 Bft)
16.10.2012 02:50 2,9 C 15,7 C 4,2 C 2,8 C 2,7 C 0,0 C 86 % 88 % 0 % 1014,7 hPa 0,0 l/m 0,0 km/h (0 Bft) N-NW 337 0 min 0,0 UV-I 0,8 C 2,7 C 0,0 km/h (0 Bft)
16.10.2012 02:55 2,9 C 15,7 C 4,1 C 2,9 C 2,8 C 0,0 C 87 % 88 % 0 % 1014,7 hPa 0,0 l/m 0,0 km/h (0 Bft) N-NW 337 0 min 0,0 UV-I 1,0 C 2,8 C 0,0 km/h (0 Bft)
16.10.2012 03:00 2,8 C 15,7 C 4,3 C 2,8 C 2,8 C 0,0 C 87 % 89 % 0 % 1014,7 hPa 0,0 l/m 0,0 km/h (0 Bft) N-NW 337 0 min 0,0 UV-I 0,9 C 2,8 C 0,0 km/h (0 Bft)
16.10.2012 03:05 2,8 C 15,7 C 4,3 C 2,8 C 2,8 C 0,0 C 87 % 89 % 0 % 1014,6 hPa 0,0 l/m 0,0 km/h (0 Bft) O-NO 67 0 min 0,0 UV-I 0,9 C 2,8 C 0,0 km/h (0 Bft)
16.10.2012 03:10 2,7 C 15,6 C 4,1 C 2,8 C 2,8 C 0,1 C 87 % 89 % 0 % 1014,6 hPa 0,0 l/m 0,0 km/h (0 Bft) NW 315 0 min 0,0 UV-I 0,8 C 2,8 C 0,0 km/h (0 Bft)
16.10.2012 03:15 2,7 C 15,6 C 4,0 C 2,7 C 2,6 C 0,0 C 87 % 89 % 0 % 1014,6 hPa 0,0 l/m 0,0 km/h (0 Bft) NW 315 0 min 0,0 UV-I 0,8 C 2,6 C 0,0 km/h (0 Bft)
16.10.2012 03:20 2,7 C 15,6 C 4,1 C 2,6 C 2,4 C 0,0 C 87 % 89 % 0 % 1014,6 hPa 0,0 l/m 0,0 km/h (0 Bft) NW 315 0 min 0,0 UV-I 0,8 C 2,4 C 0,0 km/h (0 Bft)
16.10.2012 03:25 2,5 C 15,7 C 4,0 C 2,4 C 2,2 C 0,0 C 87 % 89 % 0 % 1014,7 hPa 0,0 l/m 0,0 km/h (0 Bft) NW 315 0 min 0,0 UV-I 0,6 C 2,2 C 0,0 km/h (0 Bft)
16.10.2012 03:30 2,4 C 15,6 C 3,9 C 2,3 C 2,0 C 0,0 C 87 % 89 % 0 % 1014,7 hPa 0,0 l/m 0,0 km/h (0 Bft) NW 315 0 min 0,0 UV-I 0,5 C 2,0 C 0,0 km/h (0 Bft)
16.10.2012 03:35 2,4 C 15,6 C 3,9 C 2,3 C 2,0 C 0,0 C 87 % 89 % 0 % 1014,7 hPa 0,0 l/m 0,0 km/h (0 Bft) NW 315 0 min 0,0 UV-I 0,5 C 2,0 C 0,0 km/h (0 Bft)
16.10.2012 03:40 2,3 C 15,6 C 3,7 C 2,2 C 1,9 C 0,0 C 87 % 89 % 0 % 1014,7 hPa 0,0 l/m 0,0 km/h (0 Bft) W 270 0 min 0,0 UV-I 0,4 C 1,9 C 0,0 km/h (0 Bft)
16.10.2012 03:45 2,3 C 15,6 C 3,6 C 2,2 C 1,9 C 0,0 C 87 % 89 % 0 % 1014,6 hPa 0,0 l/m 0,0 km/h (0 Bft) NW 315 0 min 0,0 UV-I 0,4 C 1,9 C 0,0 km/h (0 Bft)
16.10.2012 03:50 2,3 C 15,6 C 3,6 C 2,2 C 1,9 C 0,0 C 87 % 89 % 0 % 1014,6 hPa 0,0 l/m 0,2 km/h (0 Bft) O-NO 67 0 min 0,0 UV-I 0,4 C 1,9 C 1,8 km/h (1 Bft)
16.10.2012 03:55 2,2 C 15,6 C 3,6 C 2,2 C 2,1 C 0,0 C 87 % 89 % 0 % 1014,6 hPa 0,0 l/m 0,5 km/h (0 Bft) O-NO 67 0 min 0,0 UV-I 0,3 C 2,1 C 0,0 km/h (0 Bft)
16.10.2012 04:00 2,3 C 15,6 C 3,4 C 2,2 C 2,0 C 0,0 C 88 % 89 % 0 % 1014,6 hPa 0,0 l/m 0,5 km/h (0 Bft) NO 45 0 min 0,0 UV-I 0,5 C 2,0 C 0,0 km/h (0 Bft)
16.10.2012 04:05 2,1 C 15,5 C 3,5 C 2,0 C 1,9 C 0,0 C 87 % 90 % 0 % 1014,4 hPa 0,0 l/m 0,0 km/h (0 Bft) NO 45 0 min 0,0 UV-I 0,2 C 1,9 C 0,0 km/h (0 Bft)
16.10.2012 04:10 2,1 C 15,5 C 3,5 C 1,9 C 1,5 C 0,0 C 88 % 90 % 0 % 1014,4 hPa 0,0 l/m 0,0 km/h (0 Bft) O-SO 112 0 min 0,0 UV-I 0,3 C 1,5 C 0,0 km/h (0 Bft)
16.10.2012 04:15 1,9 C 15,5 C 3,4 C 1,7 C 1,4 C 0,0 C 87 % 90 % 0 % 1014,4 hPa 0,0 l/m 0,0 km/h (0 Bft) O-SO 112 0 min 0,0 UV-I -0,0 C 1,4 C 0,0 km/h (0 Bft)
16.10.2012 04:20 1,9 C 15,5 C 3,3 C 1,7 C 1,4 C 0,0 C 87 % 89 % 0 % 1014,4 hPa 0,0 l/m 0,0 km/h (0 Bft) O-SO 112 0 min 0,0 UV-I -0,0 C 1,4 C 0,0 km/h (0 Bft)
16.10.2012 04:25 1,9 C 15,5 C 3,3 C 1,7 C 1,4 C 0,0 C 88 % 89 % 0 % 1014,4 hPa 0,0 l/m 0,0 km/h (0 Bft) O-SO 112 0 min 0,0 UV-I 0,1 C 1,4 C 0,0 km/h (0 Bft)
16.10.2012 04:30 1,7 C 15,5 C 3,3 C 1,6 C 1,5 C 0,0 C 88 % 89 % 0 % 1014,4 hPa 0,0 l/m 0,0 km/h (0 Bft) NO 45 0 min 0,0 UV-I -0,1 C 1,5 C 0,0 km/h (0 Bft)
16.10.2012 04:35 1,7 C 15,5 C 3,1 C 1,6 C 1,4 C 0,0 C 88 % 89 % 0 % 1014,4 hPa 0,0 l/m 0,0 km/h (0 Bft) NO 45 0 min 0,0 UV-I -0,1 C 1,4 C 0,0 km/h (0 Bft)
16.10.2012 04:40 1,7 C 15,5 C 3,1 C 1,5 C 1,2 C 0,0 C 88 % 89 % 0 % 1014,4 hPa 0,0 l/m 0,0 km/h (0 Bft) O-SO 112 0 min 0,0 UV-I -0,1 C 1,2 C 0,0 km/h (0 Bft)
16.10.2012 04:45 1,7 C 15,5 C 3,1 C 1,5 C 1,2 C 0,0 C 88 % 89 % 0 % 1014,8 hPa 0,0 l/m 0,0 km/h (0 Bft) O-NO 67 0 min 0,0 UV-I -0,1 C 1,2 C 0,0 km/h (0 Bft)
16.10.2012 04:50 1,6 C 15,5 C 3,0 C 1,4 C 1,1 C 0,0 C 88 % 89 % 0 % 1014,8 hPa 0,0 l/m 0,0 km/h (0 Bft) O-SO 112 0 min 0,0 UV-I -0,2 C 1,1 C 0,0 km/h (0 Bft)
16.10.2012 04:55 1,5 C 15,5 C 3,0 C 1,4 C 1,1 C 0,0 C 88 % 89 % 0 % 1014,8 hPa 0,0 l/m 0,0 km/h (0 Bft) O-SO 112 0 min 0,0 UV-I -0,3 C 1,1 C 0,0 km/h (0 Bft)
16.10.2012 05:00 1,5 C 15,4 C 2,8 C 1,4 C 1,1 C 0,0 C 88 % 89 % 0 % 1014,8 hPa 0,0 l/m 0,0 km/h (0 Bft) O-SO 112 0 min 0,0 UV-I -0,3 C 1,1 C 0,0 km/h (0 Bft)
16.10.2012 05:05 1,4 C 15,4 C 2,8 C 1,3 C 1,0 C 0,0 C 88 % 90 % 0 % 1014,4 hPa 0,0 l/m 0,0 km/h (0 Bft) N-NW 337 0 min 0,0 UV-I -0,4 C 1,0 C 0,0 km/h (0 Bft)
16.10.2012 05:10 1,3 C 15,4 C 2,8 C 1,2 C 0,9 C 0,0 C 88 % 90 % 0 % 1014,4 hPa 0,0 l/m 0,0 km/h (0 Bft) N-NW 337 0 min 0,0 UV-I -0,5 C 0,9 C 0,0 km/h (0 Bft)
16.10.2012 05:15 1,2 C 15,4 C 2,8 C 1,1 C 0,9 C 0,0 C 88 % 90 % 0 % 1014,4 hPa 0,0 l/m 0,0 km/h (0 Bft) S-SW 202 0 min 0,0 UV-I -0,6 C 0,9 C 0,0 km/h (0 Bft)
16.10.2012 05:20 1,2 C 15,4 C 2,9 C 1,2 C 1,1 C 0,0 C 88 % 90 % 0 % 1014,4 hPa 0,0 l/m 0,0 km/h (0 Bft) O-SO 112 0 min 0,0 UV-I -0,6 C 1,1 C 0,0 km/h (0 Bft)
16.10.2012 05:25 1,2 C 15,4 C 2,8 C 1,2 C 1,1 C 0,0 C 88 % 90 % 0 % 1014,4 hPa 0,0 l/m 0,0 km/h (0 Bft) O-NO 67 0 min 0,0 UV-I -0,6 C 1,1 C 1,8 km/h (1 Bft)
16.10.2012 05:30 1,2 C 15,5 C 2,7 C 1,2 C 1,2 C 0,0 C 88 % 90 % 0 % 1014,4 hPa 0,0 l/m 0,8 km/h (0 Bft) O-NO 67 0 min 0,0 UV-I -0,6 C 1,2 C 0,0 km/h (0 Bft)
16.10.2012 05:35 1,2 C 15,5 C 2,7 C 1,2 C 1,2 C 0,0 C 89 % 90 % 0 % 1014,4 hPa 0,0 l/m 0,8 km/h (0 Bft) O 90 0 min 0,0 UV-I -0,4 C 1,2 C 0,0 km/h (0 Bft)
16.10.2012 05:40 1,2 C 15,5 C 2,7 C 1,2 C 1,2 C 0,0 C 89 % 90 % 0 % 1014,4 hPa 0,0 l/m 0,0 km/h (0 Bft) O-NO 67 0 min 0,0 UV-I -0,4 C 1,2 C 0,0 km/h (0 Bft)
16.10.2012 05:45 1,2 C 15,5 C 2,7 C 1,3 C 1,3 C 0,1 C 89 % 90 % 0 % 1014,7 hPa 0,0 l/m 0,0 km/h (0 Bft) O 90 0 min 0,0 UV-I -0,4 C 1,3 C 0,0 km/h (0 Bft)
16.10.2012 05:50 1,2 C 15,4 C 2,7 C 1,2 C 1,2 C 0,0 C 89 % 90 % 0 % 1014,7 hPa 0,0 l/m 0,2 km/h (0 Bft) W 270 0 min 0,0 UV-I -0,4 C 1,2 C 0,0 km/h (0 Bft)
16.10.2012 05:55 1,1 C 15,4 C 2,7 C 1,1 C 1,1 C 0,0 C 89 % 90 % 0 % 1014,7 hPa 0,0 l/m 0,2 km/h (0 Bft) W-NW 292 0 min 0,0 UV-I -0,5 C 1,1 C 0,0 km/h (0 Bft)
16.10.2012 06:00 1,1 C 15,4 C 2,7 C 1,1 C 1,0 C 0,0 C 89 % 90 % 0 % 1014,7 hPa 0,0 l/m 0,0 km/h (0 Bft) W 270 0 min 0,0 UV-I -0,5 C 1,0 C 0,0 km/h (0 Bft)
16.10.2012 06:05 1,0 C 15,4 C 2,7 C 1,0 C 0,9 C 0,0 C 89 % 90 % 0 % 1014,4 hPa 0,0 l/m 0,0 km/h (0 Bft) W-SW 247 0 min 0,0 UV-I -0,6 C 0,9 C 0,0 km/h (0 Bft)
16.10.2012 06:10 1,1 C 15,4 C 2,6 C 1,0 C 0,9 C 0,0 C 89 % 90 % 0 % 1014,4 hPa 0,0 l/m 0,0 km/h (0 Bft) S 180 0 min 0,0 UV-I -0,5 C 0,9 C 0,0 km/h (0 Bft)
16.10.2012 06:15 1,1 C 15,4 C 2,5 C 1,1 C 1,0 C 0,0 C 89 % 90 % 0 % 1014,4 hPa 0,0 l/m 0,0 km/h (0 Bft) NO 45 0 min 0,0 UV-I -0,5 C 1,0 C 0,0 km/h (0 Bft)
16.10.2012 06:20 1,1 C 15,4 C 2,4 C 1,1 C 1,0 C 0,0 C 89 % 90 % 0 % 1014,4 hPa 0,0 l/m 0,0 km/h (0 Bft) N-NW 337 0 min 0,0 UV-I -0,5 C 1,0 C 0,0 km/h (0 Bft)
16.10.2012 06:25 1,1 C 15,4 C 2,4 C 1,1 C 1,0 C 0,0 C 89 % 90 % 0 % 1014,8 hPa 0,0 l/m 0,0 km/h (0 Bft) NW 315 0 min 0,0 UV-I -0,5 C 1,0 C 0,0 km/h (0 Bft)
16.10.2012 06:30 1,1 C 15,4 C 2,4 C 1,0 C 0,7 C 0,0 C 89 % 91 % 0 % 1014,8 hPa 0,0 l/m 0,0 km/h (0 Bft) W-SW 247 0 min 0,0 UV-I -0,5 C 0,7 C 0,0 km/h (0 Bft)
16.10.2012 06:35 1,0 C 15,3 C 2,5 C 0,9 C 0,7 C 0,0 C 89 % 91 % 0 % 1014,8 hPa 0,0 l/m 0,0 km/h (0 Bft) W-SW 247 0 min 0,0 UV-I -0,6 C 0,7 C 0,0 km/h (0 Bft)
16.10.2012 06:46 0,9 C 15,3 C 2,3 C 0,7 C 0,4 C 0,0 C 89 % 91 % 0 % 1014,6 hPa 0,0 l/m 0,0 km/h (0 Bft) N 0 0 min 0,0 UV-I -0,7 C 0,4 C 0,0 km/h (0 Bft)
16.10.2012 06:55 0,8 C 15,3 C 2,3 C 0,7 C 0,4 C 0,0 C 89 % 91 % 0 % 1014,6 hPa 0,0 l/m 0,0 km/h (0 Bft) O-SO 112 0 min 0,0 UV-I -0,8 C 0,4 C 0,0 km/h (0 Bft)
16.10.2012 07:00 0,7 C 15,3 C 2,1 C 0,6 C 0,4 C 0,0 C 89 % 91 % 0 % 1014,6 hPa 0,0 l/m 0,0 km/h (0 Bft) O-NO 67 0 min 0,0 UV-I -0,9 C 0,4 C 0,0 km/h (0 Bft)
16.10.2012 07:05 0,7 C 15,3 C 2,1 C 0,6 C 0,4 C 0,0 C 89 % 91 % 0 % 1014,4 hPa 0,0 l/m 0,0 km/h (0 Bft) O-NO 67 0 min 0,0 UV-I -0,9 C 0,4 C 0,0 km/h (0 Bft)
16.10.2012 07:10 0,7 C 15,2 C 2,0 C 0,6 C 0,3 C 0,0 C 89 % 90 % 0 % 1014,4 hPa 0,0 l/m 0,0 km/h (0 Bft) O-NO 67 0 min 0,0 UV-I -0,9 C 0,3 C 0,0 km/h (0 Bft)
16.10.2012 07:15 0,7 C 15,2 C 2,1 C 0,6 C 0,4 C 0,0 C 89 % 91 % 0 % 1014,4 hPa 0,0 l/m 0,0 km/h (0 Bft) O-NO 67 0 min 0,0 UV-I -0,9 C 0,4 C 0,0 km/h (0 Bft)
16.10.2012 07:20 0,7 C 15,2 C 2,0 C 0,6 C 0,5 C 0,0 C 89 % 90 % 0 % 1014,4 hPa 0,0 l/m 0,0 km/h (0 Bft) O-NO 67 0 min 0,0 UV-I -0,9 C 0,5 C 0,0 km/h (0 Bft)
16.10.2012 07:25 0,6 C 15,2 C 2,0 C 0,6 C 0,5 C 0,0 C 89 % 90 % 0 % 1014,4 hPa 0,0 l/m 0,0 km/h (0 Bft) W-SW 247 0 min 0,0 UV-I -1,0 C 0,5 C 0,0 km/h (0 Bft)
16.10.2012 07:30 0,7 C 15,2 C 2,1 C 0,6 C 0,4 C 0,0 C 89 % 91 % 0 % 1014,4 hPa 0,0 l/m 0,0 km/h (0 Bft) W-SW 247 0 min 0,0 UV-I -0,9 C 0,4 C 0,0 km/h (0 Bft)
16.10.2012 07:35 0,5 C 15,2 C 2,0 C 0,4 C 0,3 C 0,0 C 89 % 90 % 0 % 1014,4 hPa 0,0 l/m 0,0 km/h (0 Bft) W-SW 247 0 min 0,0 UV-I -1,1 C 0,3 C 0,0 km/h (0 Bft)
16.10.2012 07:40 0,5 C 15,2 C 2,0 C 0,4 C 0,3 C 0,0 C 89 % 90 % 0 % 1014,4 hPa 0,0 l/m 0,0 km/h (0 Bft) NO 45 0 min 0,0 UV-I -1,1 C 0,3 C 0,0 km/h (0 Bft)
16.10.2012 07:45 0,4 C 15,2 C 2,0 C 0,3 C 0,2 C 0,0 C 89 % 90 % 0 % 1015,1 hPa 0,0 l/m 0,0 km/h (0 Bft) NO 45 0 min 0,0 UV-I -1,2 C 0,2 C 0,0 km/h (0 Bft)
16.10.2012 07:50 0,4 C 15,1 C 1,9 C 0,2 C -0,1 C 0,0 C 89 % 90 % 0 % 1015,1 hPa 0,0 l/m 0,0 km/h (0 Bft) W-SW 247 0 min 0,0 UV-I -1,2 C -0,1 C 0,0 km/h (0 Bft)
16.10.2012 07:55 0,2 C 15,1 C 1,9 C 0,1 C -0,1 C 0,0 C 89 % 91 % 0 % 1015,1 hPa 0,0 l/m 0,0 km/h (0 Bft) W 270 0 min 0,0 UV-I -1,4 C -0,1 C 0,0 km/h (0 Bft)
16.10.2012 08:00 0,2 C 15,1 C 1,9 C 0,1 C -0,1 C 0,0 C 89 % 90 % 0 % 1015,1 hPa 0,0 l/m 0,0 km/h (0 Bft) NW 315 0 min 0,0 UV-I -1,4 C -0,1 C 0,0 km/h (0 Bft)
16.10.2012 08:05 0,2 C 15,1 C 1,9 C 0,1 C -0,2 C 0,0 C 89 % 90 % 0 % 1014,6 hPa 0,0 l/m 0,0 km/h (0 Bft) W 270 0 min 0,0 UV-I -1,4 C -0,2 C 0,0 km/h (0 Bft)
16.10.2012 08:10 0,2 C 15,1 C 1,8 C 0,1 C -0,1 C 0,0 C 89 % 90 % 0 % 1014,6 hPa 0,0 l/m 0,0 km/h (0 Bft) O 90 0 min 0,0 UV-I -1,4 C -0,1 C 0,0 km/h (0 Bft)
16.10.2012 08:15 0,1 C 15,1 C 1,9 C 0,1 C 0,0 C 0,0 C 89 % 90 % 0 % 1014,6 hPa 0,0 l/m 0,0 km/h (0 Bft) O 90 0 min 0,0 UV-I -1,5 C 0,0 C 0,0 km/h (0 Bft)
16.10.2012 08:20 0,2 C 15,1 C 1,9 C 0,1 C 0,0 C 0,0 C 89 % 91 % 0 % 1014,6 hPa 0,0 l/m 0,0 km/h (0 Bft) O-NO 67 0 min 0,0 UV-I -1,4 C 0,0 C 0,0 km/h (0 Bft)
16.10.2012 08:25 0,4 C 15,1 C 1,9 C 0,3 C 0,2 C 0,0 C 90 % 91 % 0 % 1014,8 hPa 0,0 l/m 0,0 km/h (0 Bft) O-NO 67 0 min 0,0 UV-I -1,0 C 0,2 C 0,0 km/h (0 Bft)
16.10.2012 08:30 0,4 C 15,1 C 1,9 C 0,4 C 0,3 C 0,0 C 90 % 91 % 0 % 1014,8 hPa 0,0 l/m 0,0 km/h (0 Bft) O-NO 67 0 min 0,0 UV-I -1,0 C 0,3 C 0,0 km/h (0 Bft)
16.10.2012 08:35 0,5 C 15,1 C 2,0 C 0,5 C 0,5 C 0,0 C 90 % 91 % 0 % 1014,8 hPa 0,0 l/m 0,0 km/h (0 Bft) O-NO 67 0 min 0,0 UV-I -0,9 C 0,5 C 0,0 km/h (0 Bft)
16.10.2012 08:40 0,6 C 15,0 C 2,0 C 0,6 C 0,6 C 0,0 C 90 % 91 % 0 % 1014,8 hPa 0,0 l/m 0,0 km/h (0 Bft) W 270 0 min 0,0 UV-I -0,8 C 0,6 C 0,0 km/h (0 Bft)
16.10.2012 08:45 0,5 C 15,0 C 2,0 C 0,5 C 0,5 C 0,0 C 90 % 91 % 0 % 1014,7 hPa 0,0 l/m 0,0 km/h (0 Bft) W 270 0 min 0,0 UV-I -0,9 C 0,5 C 0,0 km/h (0 Bft)
16.10.2012 08:50 0,4 C 15,0 C 1,8 C 0,4 C 0,3 C 0,0 C 90 % 90 % 0 % 1014,7 hPa 0,0 l/m 0,2 km/h (0 Bft) NW 315 0 min 0,0 UV-I -1,0 C 0,3 C 0,0 km/h (0 Bft)
16.10.2012 08:55 0,3 C 15,0 C 1,7 C 0,3 C 0,3 C 0,0 C 90 % 90 % 0 % 1014,7 hPa 0,0 l/m 0,2 km/h (0 Bft) NW 315 0 min 0,0 UV-I -1,1 C 0,3 C 0,0 km/h (0 Bft)
16.10.2012 09:00 0,3 C 15,0 C 1,9 C 0,3 C 0,3 C 0,0 C 90 % 91 % 0 % 1014,7 hPa 0,0 l/m 0,0 km/h (0 Bft) NW 315 0 min 0,0 UV-I -1,1 C 0,3 C 0,0 km/h (0 Bft)
16.10.2012 09:05 0,2 C 15,0 C 1,8 C 0,3 C 0,3 C 0,1 C 90 % 91 % 3 % 1014,6 hPa 0,0 l/m 0,0 km/h (0 Bft) O-NO 67 0 min 0,0 UV-I -1,2 C 0,3 C 0,0 km/h (0 Bft)
16.10.2012 09:10 0,4 C 15,0 C 2,0 C 0,5 C 0,5 C 0,1 C 90 % 91 % 3 % 1014,6 hPa 0,0 l/m 0,0 km/h (0 Bft) W 270 0 min 0,0 UV-I -1,0 C 0,5 C 0,0 km/h (0 Bft)
16.10.2012 09:15 0,4 C 15,0 C 2,0 C 0,6 C 0,6 C 0,2 C 90 % 91 % 5 % 1014,6 hPa 0,0 l/m 0,0 km/h (0 Bft) NW 315 0 min 0,0 UV-I -1,0 C 0,6 C 0,0 km/h (0 Bft)
16.10.2012 09:20 0,5 C 15,0 C 2,2 C 0,7 C 0,7 C 0,2 C 90 % 91 % 5 % 1014,6 hPa 0,0 l/m 0,0 km/h (0 Bft) O-NO 67 0 min 0,0 UV-I -0,9 C 0,7 C 0,0 km/h (0 Bft)
16.10.2012 09:25 0,5 C 15,0 C 2,1 C 0,8 C 0,8 C 0,3 C 90 % 91 % 8 % 1014,5 hPa 0,0 l/m 0,0 km/h (0 Bft) O-NO 67 0 min 0,0 UV-I -0,9 C 0,8 C 0,0 km/h (0 Bft)
16.10.2012 09:30 0,5 C 14,9 C 2,3 C 0,8 C 0,8 C 0,3 C 90 % 91 % 8 % 1014,5 hPa 0,0 l/m 0,0 km/h (0 Bft) NW 315 0 min 0,0 UV-I -0,9 C 0,8 C 0,0 km/h (0 Bft)
16.10.2012 09:35 0,5 C 14,9 C 2,3 C 0,8 C 0,8 C 0,3 C 90 % 91 % 8 % 1014,5 hPa 0,0 l/m 0,0 km/h (0 Bft) NW 315 0 min 0,0 UV-I -0,9 C 0,8 C 0,0 km/h (0 Bft)
16.10.2012 09:40 0,4 C 14,9 C 2,1 C 0,8 C 0,8 C 0,4 C 90 % 91 % 11 % 1014,5 hPa 0,0 l/m 0,0 km/h (0 Bft) SW 225 0 min 0,0 UV-I -1,0 C 0,8 C 0,0 km/h (0 Bft)
16.10.2012 09:45 0,4 C 14,9 C 2,1 C 0,8 C 0,8 C 0,4 C 90 % 91 % 11 % 1014,5 hPa 0,0 l/m 0,0 km/h (0 Bft) W-SW 247 0 min 0,0 UV-I -1,0 C 0,8 C 2,1 km/h (1 Bft)
16.10.2012 09:50 0,4 C 14,9 C 2,1 C 0,8 C 0,8 C 0,4 C 90 % 91 % 11 % 1014,5 hPa 0,0 l/m 0,3 km/h (0 Bft) N 360 0 min 0,0 UV-I -1,0 C 0,8 C 0,0 km/h (0 Bft)
16.10.2012 09:55 0,5 C 14,9 C 2,1 C 0,8 C 0,8 C 0,3 C 90 % 91 % 8 % 1014,5 hPa 0,0 l/m 0,3 km/h (0 Bft) N 360 0 min 0,0 UV-I -0,9 C 0,8 C 0,0 km/h (0 Bft)
16.10.2012 10:00 0,7 C 14,9 C 2,3 C 1,0 C 1,0 C 0,3 C 90 % 91 % 8 % 1014,5 hPa 0,0 l/m 0,0 km/h (0 Bft) O-NO 67 0 min 0,0 UV-I -0,7 C 1,0 C 0,0 km/h (0 Bft)
16.10.2012 10:05 0,7 C 14,9 C 2,4 C 1,2 C 1,2 C 0,5 C 90 % 91 % 13 % 1014,4 hPa 0,0 l/m 0,0 km/h (0 Bft) O 90 0 min 0,0 UV-I -0,7 C 1,2 C 0,0 km/h (0 Bft)
16.10.2012 10:10 0,8 C 14,9 C 2,9 C 1,6 C 1,6 C 0,8 C 91 % 91 % 21 % 1014,4 hPa 0,0 l/m 0,2 km/h (0 Bft) W-SW 247 0 min 0,0 UV-I -0,5 C 1,6 C 0,0 km/h (0 Bft)
16.10.2012 10:15 1,0 C 14,9 C 2,9 C 1,9 C 1,9 C 0,9 C 91 % 91 % 24 % 1014,4 hPa 0,0 l/m 0,3 km/h (0 Bft) W-SW 247 0 min 0,1 UV-I -0,3 C 1,9 C 2,4 km/h (1 Bft)
16.10.2012 10:20 1,2 C 14,9 C 3,2 C 2,4 C 2,4 C 1,2 C 91 % 91 % 32 % 1014,4 hPa 0,0 l/m 0,5 km/h (0 Bft) W-SW 247 0 min 0,1 UV-I -0,1 C 2,4 C 0,0 km/h (0 Bft)
16.10.2012 10:25 1,5 C 14,9 C 3,3 C 2,7 C 2,7 C 1,2 C 91 % 92 % 32 % 1014,5 hPa 0,0 l/m 0,5 km/h (0 Bft) SW 225 0 min 0,1 UV-I 0,2 C 2,7 C 0,0 km/h (0 Bft)
16.10.2012 10:30 1,6 C 14,8 C 3,6 C 3,2 C 3,2 C 1,6 C 91 % 92 % 42 % 1014,5 hPa 0,0 l/m 0,0 km/h (0 Bft) SW 225 0 min 0,1 UV-I 0,3 C 3,2 C 0,0 km/h (0 Bft)
16.10.2012 10:35 1,9 C 14,7 C 3,9 C 3,7 C 3,7 C 1,8 C 91 % 92 % 47 % 1014,5 hPa 0,0 l/m 0,0 km/h (0 Bft) S-SO 157 0 min 0,1 UV-I 0,6 C 3,7 C 0,0 km/h (0 Bft)
16.10.2012 10:40 2,3 C 14,7 C 4,3 C 4,6 C 4,6 C 2,3 C 92 % 92 % 61 % 1014,5 hPa 0,0 l/m 0,8 km/h (0 Bft) S 180 0 min 0,1 UV-I 1,1 C 4,6 C 6,4 km/h (2 Bft)
16.10.2012 10:45 2,9 C 14,7 C 4,7 C 5,4 C 5,4 C 2,5 C 92 % 93 % 66 % 1014,7 hPa 0,0 l/m 1,3 km/h (1 Bft) W-SW 247 0 min 0,2 UV-I 1,7 C 5,4 C 1,8 km/h (1 Bft)
16.10.2012 10:50 3,2 C 14,7 C 5,0 C 5,6 C 5,6 C 2,4 C 92 % 93 % 63 % 1014,7 hPa 0,0 l/m 1,0 km/h (0 Bft) W-SW 247 0 min 0,2 UV-I 2,0 C 5,6 C 0,0 km/h (0 Bft)
16.10.2012 10:55 3,6 C 14,7 C 5,2 C 5,8 C 5,8 C 2,2 C 92 % 92 % 58 % 1014,7 hPa 0,0 l/m 0,6 km/h (0 Bft) W-SW 247 0 min 0,2 UV-I 2,4 C 5,8 C 0,0 km/h (0 Bft)
16.10.2012 11:00 3,9 C 14,6 C 5,6 C 5,9 C 5,9 C 2,0 C 92 % 92 % 53 % 1014,7 hPa 0,0 l/m 0,8 km/h (0 Bft) S 180 0 min 0,2 UV-I 2,7 C 5,9 C 0,0 km/h (0 Bft)
16.10.2012 11:05 4,1 C 14,6 C 5,9 C 6,1 C 6,1 C 2,0 C 92 % 92 % 53 % 1014,3 hPa 0,0 l/m 0,6 km/h (0 Bft) O-SO 112 0 min 0,3 UV-I 2,9 C 6,1 C 0,0 km/h (0 Bft)
16.10.2012 11:10 4,4 C 14,4 C 6,3 C 6,6 C 6,6 C 2,2 C 92 % 92 % 58 % 1014,3 hPa 0,0 l/m 1,0 km/h (0 Bft) W 270 0 min 0,3 UV-I 3,2 C 6,6 C 1,6 km/h (1 Bft)
16.10.2012 11:15 4,8 C 14,4 C 6,5 C 6,9 C 6,9 C 2,1 C 93 % 92 % 55 % 1014,3 hPa 0,0 l/m 1,9 km/h (1 Bft) S 180 0 min 0,3 UV-I 3,8 C 6,9 C 2,3 km/h (1 Bft)
16.10.2012 11:20 5,1 C 14,3 C 6,9 C 7,5 C 7,5 C 2,4 C 92 % 92 % 63 % 1014,3 hPa 0,0 l/m 2,4 km/h (1 Bft) O 90 0 min 0,3 UV-I 3,9 C 7,5 C 8,4 km/h (2 Bft)
16.10.2012 11:25 5,3 C 14,3 C 7,2 C 7,6 C 7,6 C 2,3 C 92 % 91 % 61 % 1014,2 hPa 0,0 l/m 1,9 km/h (1 Bft) SO 135 0 min 0,4 UV-I 4,1 C 7,6 C 6,6 km/h (2 Bft)
16.10.2012 11:30 5,9 C 14,3 C 7,5 C 8,0 C 8,0 C 2,1 C 92 % 90 % 55 % 1014,2 hPa 0,0 l/m 3,4 km/h (1 Bft) S-SO 157 0 min 0,4 UV-I 4,7 C 8,0 C 14,0 km/h (3 Bft)
16.10.2012 11:35 6,3 C 14,3 C 7,6 C 8,4 C 8,4 C 2,1 C 92 % 90 % 55 % 1014,2 hPa 0,0 l/m 4,0 km/h (1 Bft) W-NW 292 0 min 0,4 UV-I 5,1 C 8,4 C 2,6 km/h (1 Bft)
16.10.2012 11:40 6,7 C 14,3 C 7,8 C 9,0 C 9,0 C 2,3 C 91 % 89 % 61 % 1014,2 hPa 0,0 l/m 3,1 km/h (1 Bft) N 360 0 min 0,4 UV-I 5,3 C 9,0 C 6,1 km/h (2 Bft)
16.10.2012 11:45 6,9 C 14,3 C 8,0 C 9,3 C 9,3 C 2,4 C 90 % 88 % 63 % 1014,1 hPa 0,0 l/m 2,1 km/h (1 Bft) S-SO 157 0 min 0,5 UV-I 5,4 C 9,3 C 2,4 km/h (1 Bft)
16.10.2012 11:50 7,2 C 14,3 C 8,2 C 10,3 C 10,3 C 3,1 C 89 % 87 % 82 % 1014,1 hPa 0,0 l/m 1,9 km/h (1 Bft) SO 135 0 min 0,5 UV-I 5,5 C 10,3 C 1,6 km/h (1 Bft)
16.10.2012 11:55 7,5 C 14,3 C 8,3 C 10,7 C 10,7 C 3,2 C 88 % 87 % 84 % 1014,1 hPa 0,0 l/m 1,9 km/h (1 Bft) W-SW 247 0 min 0,5 UV-I 5,6 C 10,7 C 0,0 km/h (0 Bft)
16.10.2012 12:00 7,6 C 14,3 C 8,4 C 10,4 C 10,4 C 2,8 C 86 % 87 % 74 % 1014,1 hPa 0,0 l/m 2,1 km/h (1 Bft) S 180 0 min 0,5 UV-I 5,4 C 10,4 C 2,9 km/h (1 Bft)
16.10.2012 12:05 8,1 C 14,3 C 8,5 C 10,3 C 10,3 C 2,2 C 85 % 86 % 58 % 1014,3 hPa 0,0 l/m 2,3 km/h (1 Bft) W-SW 247 0 min 0,6 UV-I 5,7 C 10,3 C 6,0 km/h (2 Bft)
16.10.2012 12:10 8,6 C 14,3 C 8,8 C 10,4 C 10,4 C 1,8 C 82 % 85 % 47 % 1014,3 hPa 0,0 l/m 2,6 km/h (1 Bft) N-NO 22 0 min 0,6 UV-I 5,7 C 10,4 C 0,0 km/h (0 Bft)
16.10.2012 12:15 9,1 C 14,3 C 8,9 C 10,5 C 10,5 C 1,4 C 81 % 84 % 37 % 1014,3 hPa 0,0 l/m 2,4 km/h (1 Bft) S-SO 157 0 min 0,7 UV-I 6,0 C 10,5 C 1,8 km/h (1 Bft)
16.10.2012 12:20 9,6 C 14,3 C 9,1 C 12,5 C 12,5 C 2,9 C 79 % 84 % 76 % 1014,3 hPa 0,0 l/m 1,9 km/h (1 Bft) SO 135 0 min 0,7 UV-I 6,1 C 12,5 C 4,7 km/h (1 Bft)
16.10.2012 12:25 9,9 C 14,2 C 9,3 C 14,2 C 14,2 C 4,3 C 78 % 83 % 100 % 1014,2 hPa 0,0 l/m 1,9 km/h (1 Bft) S 180 5 min 0,7 UV-I 6,2 C 14,2 C 6,4 km/h (2 Bft)
16.10.2012 12:30 10,1 C 14,2 C 9,4 C 15,8 C 15,8 C 5,7 C 76 % 83 % 100 % 1014,2 hPa 0,0 l/m 1,8 km/h (1 Bft) S 180 5 min 0,7 UV-I 6,1 C 15,8 C 6,4 km/h (2 Bft)
16.10.2012 12:35 10,1 C 14,2 C 9,4 C 16,3 C 16,3 C 6,2 C 75 % 82 % 100 % 1014,2 hPa 0,0 l/m 2,1 km/h (1 Bft) W-SW 247 5 min 0,7 UV-I 5,9 C 16,3 C 3,2 km/h (1 Bft)
16.10.2012 12:42 10,3 C 14,2 C 9,6 C 16,7 C 16,7 C 6,4 C 74 % 82 % 100 % 1013,9 hPa 0,0 l/m 2,4 km/h (1 Bft) N 0 7 min 0,7 UV-I 5,9 C 16,7 C 1,6 km/h (1 Bft)
16.10.2012 12:55 10,4 C 14,3 C 9,7 C 16,9 C 16,9 C 6,5 C 73 % 81 % 100 % 1013,9 hPa 0,0 l/m 1,3 km/h (1 Bft) W-SW 247 13 min 0,9 UV-I 5,8 C 16,9 C 5,3 km/h (1 Bft)
16.10.2012 13:00 10,7 C 14,3 C 10,1 C 17,5 C 17,5 C 6,8 C 73 % 81 % 100 % 1013,9 hPa 0,0 l/m 1,3 km/h (1 Bft) O-NO 67 5 min 1,0 UV-I 6,1 C 17,5 C 3,4 km/h (1 Bft)
16.10.2012 13:05 10,9 C 14,3 C 10,2 C 17,7 C 17,7 C 6,8 C 72 % 80 % 100 % 1014,0 hPa 0,0 l/m 1,8 km/h (1 Bft) SW 225 5 min 1,0 UV-I 6,1 C 17,7 C 4,8 km/h (1 Bft)
16.10.2012 13:10 11,1 C 14,3 C 10,3 C 17,4 C 17,4 C 6,3 C 72 % 80 % 100 % 1014,0 hPa 0,0 l/m 2,3 km/h (1 Bft) SO 135 5 min 0,9 UV-I 6,2 C 17,4 C 0,0 km/h (0 Bft)
16.10.2012 13:15 11,2 C 14,3 C 10,3 C 17,8 C 17,8 C 6,6 C 71 % 79 % 100 % 1014,0 hPa 0,0 l/m 2,4 km/h (1 Bft) W-SW 247 5 min 0,8 UV-I 6,1 C 17,8 C 2,7 km/h (1 Bft)
16.10.2012 13:20 11,3 C 14,3 C 10,4 C 18,0 C 18,0 C 6,7 C 70 % 79 % 100 % 1014,0 hPa 0,0 l/m 2,1 km/h (1 Bft) W-SW 247 5 min 0,8 UV-I 6,0 C 18,0 C 0,0 km/h (0 Bft)
16.10.2012 13:25 11,5 C 14,3 C 10,4 C 17,7 C 17,7 C 6,2 C 69 % 79 % 100 % 1013,9 hPa 0,0 l/m 2,6 km/h (1 Bft) SW 225 5 min 0,9 UV-I 6,0 C 17,7 C 1,8 km/h (1 Bft)
16.10.2012 13:30 11,5 C 14,3 C 10,5 C 16,4 C 16,4 C 4,9 C 69 % 78 % 100 % 1013,9 hPa 0,0 l/m 2,1 km/h (1 Bft) S-SO 157 5 min 0,8 UV-I 6,0 C 16,4 C 2,6 km/h (1 Bft)
16.10.2012 13:35 11,6 C 14,3 C 10,7 C 16,8 C 16,8 C 5,2 C 69 % 77 % 100 % 1013,9 hPa 0,0 l/m 1,9 km/h (1 Bft) W-SW 247 5 min 0,8 UV-I 6,1 C 16,8 C 1,9 km/h (1 Bft)
16.10.2012 13:40 11,8 C 14,3 C 10,9 C 17,2 C 17,2 C 5,4 C 68 % 77 % 100 % 1013,9 hPa 0,0 l/m 3,1 km/h (1 Bft) W 270 5 min 0,8 UV-I 6,1 C 17,2 C 6,9 km/h (2 Bft)
16.10.2012 13:45 11,9 C 14,3 C 10,9 C 16,5 C 16,5 C 4,6 C 66 % 77 % 100 % 1013,7 hPa 0,0 l/m 3,5 km/h (1 Bft) S-SW 202 5 min 0,8 UV-I 5,8 C 16,5 C 4,3 km/h (1 Bft)
16.10.2012 13:50 11,8 C 14,4 C 11,1 C 15,9 C 15,9 C 4,1 C 65 % 76 % 100 % 1013,7 hPa 0,0 l/m 4,8 km/h (1 Bft) S-SO 157 5 min 0,8 UV-I 5,4 C 15,9 C 5,6 km/h (1 Bft)
16.10.2012 13:55 11,9 C 14,4 C 11,1 C 16,2 C 16,2 C 4,3 C 65 % 76 % 100 % 1013,7 hPa 0,0 l/m 5,3 km/h (1 Bft) S-SW 202 5 min 0,8 UV-I 5,5 C 16,2 C 3,9 km/h (1 Bft)
16.10.2012 14:00 12,0 C 14,4 C 11,3 C 16,9 C 16,9 C 4,9 C 65 % 75 % 100 % 1013,7 hPa 0,0 l/m 3,9 km/h (1 Bft) SO 135 5 min 0,7 UV-I 5,6 C 16,9 C 3,1 km/h (1 Bft)
16.10.2012 14:05 12,0 C 14,4 C 11,3 C 17,3 C 17,3 C 5,3 C 64 % 74 % 100 % 1013,4 hPa 0,0 l/m 3,1 km/h (1 Bft) SW 225 5 min 0,7 UV-I 5,4 C 17,3 C 7,9 km/h (2 Bft)
16.10.2012 14:10 12,1 C 14,4 C 11,5 C 17,6 C 17,6 C 5,5 C 65 % 74 % 100 % 1013,4 hPa 0,0 l/m 2,6 km/h (1 Bft) W-SW 247 5 min 0,7 UV-I 5,7 C 17,6 C 4,7 km/h (1 Bft)
16.10.2012 14:15 12,3 C 14,4 C 11,5 C 17,3 C 17,3 C 5,0 C 65 % 74 % 100 % 1013,4 hPa 0,0 l/m 2,3 km/h (1 Bft) SO 135 5 min 0,7 UV-I 5,9 C 17,3 C 2,3 km/h (1 Bft)
16.10.2012 14:20 12,2 C 14,4 C 11,5 C 17,4 C 17,4 C 5,2 C 65 % 73 % 100 % 1013,4 hPa 0,0 l/m 2,3 km/h (1 Bft) NW 315 5 min 0,7 UV-I 5,8 C 17,4 C 2,4 km/h (1 Bft)
16.10.2012 14:25 12,3 C 14,4 C 11,6 C 17,4 C 17,4 C 5,1 C 65 % 73 % 100 % 1013,4 hPa 0,0 l/m 2,1 km/h (1 Bft) W-SW 247 5 min 0,7 UV-I 5,9 C 17,4 C 5,1 km/h (1 Bft)
16.10.2012 14:30 12,4 C 14,5 C 11,9 C 17,0 C 17,0 C 4,6 C 65 % 72 % 100 % 1013,4 hPa 0,0 l/m 2,3 km/h (1 Bft) S-SO 157 5 min 0,6 UV-I 6,0 C 17,0 C 3,7 km/h (1 Bft)
16.10.2012 14:35 12,5 C 14,5 C 11,9 C 16,8 C 16,8 C 4,3 C 65 % 72 % 100 % 1013,4 hPa 0,0 l/m 2,3 km/h (1 Bft) NO 45 5 min 0,6 UV-I 6,1 C 16,8 C 2,3 km/h (1 Bft)
16.10.2012 14:40 12,5 C 14,5 C 11,9 C 17,1 C 17,1 C 4,6 C 64 % 71 % 100 % 1013,4 hPa 0,0 l/m 1,9 km/h (1 Bft) S-SW 202 5 min 0,6 UV-I 5,9 C 17,1 C 0,0 km/h (0 Bft)
16.10.2012 14:45 12,5 C 14,5 C 12,0 C 17,8 C 17,8 C 5,3 C 64 % 72 % 100 % 1013,1 hPa 0,0 l/m 1,6 km/h (1 Bft) O-NO 67 5 min 0,6 UV-I 5,9 C 17,8 C 0,0 km/h (0 Bft)
16.10.2012 14:50 12,7 C 14,5 C 12,0 C 18,5 C 18,5 C 5,8 C 64 % 71 % 100 % 1013,1 hPa 0,0 l/m 1,4 km/h (1 Bft) S-SW 202 5 min 0,6 UV-I 6,1 C 18,5 C 5,1 km/h (1 Bft)
16.10.2012 14:55 12,6 C 14,5 C 12,0 C 18,2 C 18,2 C 5,6 C 64 % 71 % 100 % 1013,1 hPa 0,0 l/m 1,8 km/h (1 Bft) O-SO 112 5 min 0,5 UV-I 6,0 C 18,2 C 3,2 km/h (1 Bft)
16.10.2012 15:00 12,8 C 14,5 C 12,2 C 18,3 C 18,3 C 5,5 C 64 % 71 % 100 % 1013,1 hPa 0,0 l/m 1,8 km/h (1 Bft) SW 225 5 min 0,5 UV-I 6,2 C 18,3 C 2,1 km/h (1 Bft)
16.10.2012 15:05 12,8 C 14,5 C 12,3 C 18,6 C 18,6 C 5,8 C 64 % 71 % 100 % 1013,0 hPa 0,0 l/m 1,6 km/h (1 Bft) O-NO 67 5 min 0,5 UV-I 6,2 C 18,6 C 1,9 km/h (1 Bft)
16.10.2012 15:10 12,8 C 14,5 C 12,3 C 18,8 C 18,8 C 6,0 C 63 % 69 % 100 % 1013,0 hPa 0,0 l/m 1,4 km/h (1 Bft) SW 225 5 min 0,4 UV-I 5,9 C 18,8 C 4,3 km/h (1 Bft)
16.10.2012 15:15 12,9 C 14,5 C 12,3 C 18,9 C 18,9 C 6,0 C 62 % 69 % 100 % 1013,0 hPa 0,0 l/m 1,1 km/h (1 Bft) S 180 5 min 0,4 UV-I 5,8 C 18,9 C 12,1 km/h (2 Bft)
16.10.2012 15:20 12,9 C 14,6 C 12,3 C 18,9 C 18,9 C 6,0 C 61 % 69 % 100 % 1013,0 hPa 0,0 l/m 1,8 km/h (1 Bft) SW 225 5 min 0,4 UV-I 5,6 C 18,9 C 3,7 km/h (1 Bft)
16.10.2012 15:25 12,9 C 14,6 C 12,4 C 19,0 C 19,0 C 6,1 C 61 % 69 % 100 % 1012,6 hPa 0,0 l/m 1,8 km/h (1 Bft) S 180 5 min 0,4 UV-I 5,6 C 19,0 C 0,0 km/h (0 Bft)
16.10.2012 15:30 13,5 C 14,6 C 12,4 C 19,1 C 19,1 C 5,6 C 61 % 69 % 100 % 1012,6 hPa 0,0 l/m 1,8 km/h (1 Bft) SO 135 5 min 0,4 UV-I 6,1 C 19,1 C 2,9 km/h (1 Bft)
16.10.2012 15:35 13,6 C 14,6 C 12,5 C 19,0 C 19,0 C 5,4 C 61 % 69 % 100 % 1012,6 hPa 0,0 l/m 2,1 km/h (1 Bft) W-NW 292 5 min 0,3 UV-I 6,2 C 19,0 C 5,1 km/h (1 Bft)
16.10.2012 15:40 13,9 C 14,6 C 12,6 C 18,8 C 18,8 C 4,9 C 60 % 68 % 100 % 1012,6 hPa 0,0 l/m 2,1 km/h (1 Bft) W 270 5 min 0,3 UV-I 6,3 C 18,8 C 0,0 km/h (0 Bft)
16.10.2012 15:45 13,9 C 14,7 C 12,6 C 19,0 C 19,0 C 5,1 C 60 % 68 % 100 % 1012,1 hPa 0,0 l/m 1,4 km/h (1 Bft) O-SO 112 5 min 0,3 UV-I 6,3 C 19,0 C 0,0 km/h (0 Bft)
16.10.2012 15:50 14,0 C 14,7 C 12,7 C 19,3 C 19,3 C 5,3 C 58 % 67 % 100 % 1012,1 hPa 0,0 l/m 1,0 km/h (0 Bft) S-SW 202 5 min 0,3 UV-I 5,9 C 19,3 C 2,7 km/h (1 Bft)
16.10.2012 15:55 14,3 C 14,7 C 12,7 C 19,2 C 19,2 C 4,9 C 58 % 67 % 100 % 1012,1 hPa 0,0 l/m 1,8 km/h (1 Bft) SW 225 5 min 0,3 UV-I 6,2 C 19,2 C 5,6 km/h (1 Bft)
16.10.2012 16:00 14,4 C 14,7 C 12,7 C 18,6 C 18,6 C 4,2 C 56 % 67 % 100 % 1012,1 hPa 0,0 l/m 2,7 km/h (1 Bft) S-SO 157 5 min 0,2 UV-I 5,7 C 18,6 C 5,1 km/h (1 Bft)
16.10.2012 16:05 14,5 C 14,7 C 12,8 C 18,4 C 18,4 C 3,9 C 57 % 67 % 100 % 1012,3 hPa 0,0 l/m 3,1 km/h (1 Bft) S-SW 202 5 min 0,2 UV-I 6,1 C 18,4 C 7,4 km/h (2 Bft)
16.10.2012 16:10 14,9 C 14,7 C 12,8 C 18,1 C 18,1 C 3,2 C 56 % 67 % 84 % 1012,3 hPa 0,0 l/m 4,0 km/h (1 Bft) N 360 5 min 0,2 UV-I 6,2 C 18,1 C 0,0 km/h (0 Bft)
16.10.2012 16:15 14,8 C 14,7 C 12,8 C 17,9 C 17,9 C 3,1 C 56 % 66 % 82 % 1012,3 hPa 0,0 l/m 3,9 km/h (1 Bft) W-SW 247 5 min 0,1 UV-I 6,1 C 17,9 C 0,0 km/h (0 Bft)
16.10.2012 16:20 14,7 C 14,7 C 12,7 C 17,5 C 17,5 C 2,8 C 55 % 66 % 74 % 1012,3 hPa 0,0 l/m 4,0 km/h (1 Bft) O 90 5 min 0,1 UV-I 5,8 C 17,5 C 0,0 km/h (0 Bft)
16.10.2012 16:25 14,7 C 14,7 C 12,7 C 17,3 C 17,3 C 2,6 C 55 % 66 % 68 % 1012,5 hPa 0,0 l/m 4,0 km/h (1 Bft) SO 135 5 min 0,1 UV-I 5,8 C 17,3 C 1,6 km/h (1 Bft)
16.10.2012 16:30 14,5 C 14,8 C 12,7 C 17,4 C 17,4 C 2,9 C 56 % 66 % 76 % 1012,5 hPa 0,0 l/m 2,3 km/h (1 Bft) S-SW 202 5 min 0,0 UV-I 5,8 C 17,4 C 2,1 km/h (1 Bft)
16.10.2012 16:35 14,5 C 14,8 C 12,7 C 17,7 C 17,7 C 3,2 C 57 % 66 % 84 % 1012,5 hPa 0,0 l/m 2,3 km/h (1 Bft) W-SW 247 5 min 0,0 UV-I 6,1 C 17,7 C 9,0 km/h (2 Bft)
16.10.2012 16:40 14,5 C 14,8 C 12,6 C 17,5 C 17,5 C 3,0 C 55 % 66 % 79 % 1012,5 hPa 0,0 l/m 2,7 km/h (1 Bft) O-SO 112 5 min 0,0 UV-I 5,6 C 17,5 C 5,3 km/h (1 Bft)
16.10.2012 16:45 14,3 C 14,8 C 12,6 C 17,3 C 17,3 C 3,0 C 56 % 66 % 79 % 1012,2 hPa 0,0 l/m 2,9 km/h (1 Bft) W 270 5 min 0,0 UV-I 5,6 C 17,3 C 3,7 km/h (1 Bft)
16.10.2012 16:50 13,8 C 14,8 C 12,4 C 16,4 C 16,4 C 2,6 C 55 % 65 % 68 % 1012,2 hPa 0,0 l/m 3,4 km/h (1 Bft) S 180 5 min 0,0 UV-I 4,9 C 16,4 C 10,0 km/h (2 Bft)
16.10.2012 16:55 13,5 C 14,8 C 12,3 C 15,5 C 15,5 C 2,0 C 56 % 65 % 53 % 1012,2 hPa 0,0 l/m 3,7 km/h (1 Bft) NW 315 5 min 0,0 UV-I 4,9 C 15,5 C 3,9 km/h (1 Bft)
16.10.2012 17:00 13,1 C 14,8 C 12,0 C 14,5 C 14,5 C 1,4 C 57 % 66 % 37 % 1012,2 hPa 0,0 l/m 2,7 km/h (1 Bft) O-SO 112 0 min 0,0 UV-I 4,8 C 14,5 C 1,9 km/h (1 Bft)
16.10.2012 17:05 12,8 C 14,8 C 11,9 C 14,4 C 14,4 C 1,6 C 59 % 67 % 42 % 1012,1 hPa 0,0 l/m 2,1 km/h (1 Bft) SW 225 5 min 0,0 UV-I 5,0 C 14,4 C 3,1 km/h (1 Bft)
16.10.2012 17:10 12,8 C 14,8 C 11,9 C 14,4 C 14,4 C 1,6 C 59 % 67 % 42 % 1012,1 hPa 0,0 l/m 2,1 km/h (1 Bft) SW 225 5 min 0,0 UV-I 5,0 C 14,4 C 3,1 km/h (1 Bft)
16.10.2012 17:15 12,7 C 14,8 C 11,7 C 14,4 C 14,4 C 1,7 C 59 % 67 % 45 % 1012,1 hPa 0,0 l/m 1,9 km/h (1 Bft) W-SW 247 5 min 0,0 UV-I 4,9 C 14,4 C 2,3 km/h (1 Bft)
16.10.2012 17:20 12,3 C 14,9 C 11,4 C 12,6 C 12,6 C 0,3 C 60 % 68 % 8 % 1012,4 hPa 0,0 l/m 0,8 km/h (0 Bft) SW 225 0 min 0,0 UV-I 4,8 C 12,6 C 2,1 km/h (1 Bft)
16.10.2012 17:25 12,3 C 14,9 C 11,4 C 12,6 C 12,6 C 0,3 C 60 % 68 % 8 % 1012,4 hPa 0,0 l/m 0,8 km/h (0 Bft) SW 225 0 min 0,0 UV-I 4,8 C 12,6 C 2,1 km/h (1 Bft)
16.10.2012 17:30 12,0 C 14,9 C 11,0 C 12,0 C 11,9 C 0,0 C 61 % 69 % 0 % 1012,4 hPa 0,0 l/m 1,0 km/h (0 Bft) S-SW 202 0 min 0,0 UV-I 4,7 C 11,9 C 2,9 km/h (1 Bft)
16.10.2012 17:35 11,6 C 14,9 C 10,5 C 11,3 C 10,8 C 0,0 C 62 % 70 % 0 % 1012,4 hPa 0,0 l/m 0,2 km/h (0 Bft) O-NO 67 0 min 0,0 UV-I 4,6 C 10,8 C 0,0 km/h (0 Bft)
16.10.2012 17:40 11,5 C 14,9 C 10,3 C 11,2 C 10,5 C 0,0 C 63 % 70 % 0 % 1012,2 hPa 0,0 l/m 0,2 km/h (0 Bft) O-SO 112 0 min 0,0 UV-I 4,7 C 10,5 C 0,0 km/h (0 Bft)
16.10.2012 17:45 11,5 C 14,9 C 10,3 C 11,2 C 10,5 C 0,0 C 63 % 70 % 0 % 1012,2 hPa 0,0 l/m 0,2 km/h (0 Bft) O-SO 112 0 min 0,0 UV-I 4,7 C 10,5 C 0,0 km/h (0 Bft)
16.10.2012 17:50 11,1 C 14,9 C 10,0 C 10,7 C 10,0 C 0,0 C 63 % 71 % 0 % 1012,2 hPa 0,0 l/m 0,2 km/h (0 Bft) O-SO 112 0 min 0,0 UV-I 4,3 C 10,0 C 0,0 km/h (0 Bft)
16.10.2012 17:55 10,8 C 14,9 C 9,9 C 10,4 C 9,7 C 0,0 C 64 % 72 % 0 % 1012,2 hPa 0,0 l/m 0,0 km/h (0 Bft) SW 225 0 min 0,0 UV-I 4,3 C 9,7 C 0,0 km/h (0 Bft)
16.10.2012 18:00 10,7 C 14,9 C 9,9 C 10,2 C 9,3 C 0,0 C 65 % 72 % 0 % 1012,2 hPa 0,0 l/m 0,0 km/h (0 Bft) SW 225 0 min 0,0 UV-I 4,4 C 9,3 C 0,0 km/h (0 Bft)
16.10.2012 18:05 10,3 C 14,9 C 9,5 C 9,8 C 8,9 C 0,0 C 66 % 73 % 0 % 1012,1 hPa 0,0 l/m 0,0 km/h (0 Bft) N-NO 22 0 min 0,0 UV-I 4,2 C 8,9 C 0,0 km/h (0 Bft)
16.10.2012 18:10 10,3 C 14,9 C 9,5 C 9,8 C 8,9 C 0,0 C 66 % 73 % 0 % 1012,1 hPa 0,0 l/m 0,0 km/h (0 Bft) N-NO 22 0 min 0,0 UV-I 4,2 C 8,9 C 0,0 km/h (0 Bft)
16.10.2012 18:15 10,1 C 14,9 C 9,5 C 9,6 C 8,7 C 0,0 C 67 % 74 % 0 % 1012,1 hPa 0,0 l/m 0,0 km/h (0 Bft) N-NO 22 0 min 0,0 UV-I 4,3 C 8,7 C 0,0 km/h (0 Bft)
16.10.2012 18:20 9,9 C 14,9 C 9,2 C 9,4 C 8,5 C 0,0 C 67 % 73 % 0 % 1012,1 hPa 0,0 l/m 0,0 km/h (0 Bft) NO 45 0 min 0,0 UV-I 4,1 C 8,5 C 0,0 km/h (0 Bft)
16.10.2012 18:25 9,7 C 14,9 C 9,2 C 9,2 C 8,3 C 0,0 C 68 % 74 % 0 % 1012,0 hPa 0,0 l/m 0,0 km/h (0 Bft) NW 315 0 min 0,0 UV-I 4,1 C 8,3 C 0,0 km/h (0 Bft)
16.10.2012 18:30 9,5 C 15,0 C 9,1 C 9,0 C 8,1 C 0,0 C 68 % 75 % 0 % 1012,0 hPa 0,0 l/m 0,0 km/h (0 Bft) S-SO 157 0 min 0,0 UV-I 3,9 C 8,1 C 0,0 km/h (0 Bft)
16.10.2012 18:35 9,2 C 15,0 C 8,8 C 8,7 C 7,8 C 0,0 C 70 % 76 % 0 % 1012,0 hPa 0,0 l/m 0,3 km/h (0 Bft) W 270 0 min 0,0 UV-I 4,0 C 7,8 C 0,0 km/h (0 Bft)
16.10.2012 18:42 9,1 C 15,0 C 8,7 C 8,6 C 7,5 C 0,0 C 71 % 77 % 0 % 1012,6 hPa 0,0 l/m 0,2 km/h (0 Bft) N 0 0 min 0,0 UV-I 4,1 C 7,5 C 0,0 km/h (0 Bft)
16.10.2012 18:55 8,7 C 15,0 C 8,3 C 8,2 C 7,2 C 0,0 C 72 % 77 % 0 % 1012,6 hPa 0,0 l/m 0,0 km/h (0 Bft) O-SO 112 0 min 0,0 UV-I 3,9 C 7,2 C 0,0 km/h (0 Bft)
16.10.2012 19:00 8,4 C 15,1 C 8,0 C 8,0 C 7,1 C 0,0 C 72 % 78 % 0 % 1012,8 hPa 0,0 l/m 0,0 km/h (0 Bft) O-NO 67 0 min 0,0 UV-I 3,7 C 7,1 C 0,0 km/h (0 Bft)
16.10.2012 19:05 8,4 C 15,1 C 8,0 C 8,0 C 7,1 C 0,0 C 72 % 78 % 0 % 1012,8 hPa 0,0 l/m 0,0 km/h (0 Bft) O-NO 67 0 min 0,0 UV-I 3,7 C 7,1 C 0,0 km/h (0 Bft)
16.10.2012 19:10 8,3 C 15,1 C 7,9 C 7,8 C 6,9 C 0,0 C 72 % 78 % 0 % 1012,8 hPa 0,0 l/m 0,0 km/h (0 Bft) O-NO 67 0 min 0,0 UV-I 3,6 C 6,9 C 0,0 km/h (0 Bft)
16.10.2012 19:15 8,3 C 15,1 C 7,9 C 7,8 C 6,9 C 0,0 C 74 % 79 % 0 % 1012,8 hPa 0,0 l/m 0,6 km/h (0 Bft) W-SW 247 0 min 0,0 UV-I 3,9 C 6,9 C 1,6 km/h (1 Bft)
16.10.2012 19:20 8,3 C 15,1 C 7,9 C 7,8 C 6,9 C 0,0 C 74 % 79 % 0 % 1012,8 hPa 0,0 l/m 0,6 km/h (0 Bft) W-SW 247 0 min 0,0 UV-I 3,9 C 6,9 C 1,6 km/h (1 Bft)
16.10.2012 19:25 7,9 C 15,2 C 7,4 C 7,3 C 6,2 C 0,0 C 74 % 80 % 0 % 1013,2 hPa 0,0 l/m 0,2 km/h (0 Bft) SW 225 0 min 0,0 UV-I 3,6 C 6,2 C 0,0 km/h (0 Bft)
16.10.2012 19:30 7,7 C 15,2 C 7,2 C 7,1 C 6,0 C 0,0 C 75 % 80 % 0 % 1013,2 hPa 0,0 l/m 0,0 km/h (0 Bft) O-NO 67 0 min 0,0 UV-I 3,6 C 6,0 C 0,0 km/h (0 Bft)
16.10.2012 19:35 7,7 C 15,2 C 7,2 C 7,1 C 6,0 C 0,0 C 75 % 80 % 0 % 1013,2 hPa 0,0 l/m 0,0 km/h (0 Bft) O-NO 67 0 min 0,0 UV-I 3,6 C 6,0 C 0,0 km/h (0 Bft)
16.10.2012 19:40 7,4 C 15,2 C 7,1 C 6,9 C 5,9 C 0,0 C 76 % 80 % 0 % 1013,2 hPa 0,0 l/m 0,0 km/h (0 Bft) O 90 0 min 0,0 UV-I 3,5 C 5,9 C 0,0 km/h (0 Bft)
16.10.2012 19:45 7,3 C 15,1 C 7,1 C 6,9 C 6,1 C 0,0 C 76 % 81 % 0 % 1012,9 hPa 0,0 l/m 0,0 km/h (0 Bft) O-SO 112 0 min 0,0 UV-I 3,4 C 6,1 C 0,0 km/h (0 Bft)
16.10.2012 19:50 7,5 C 15,1 C 7,3 C 7,1 C 6,4 C 0,0 C 76 % 81 % 0 % 1012,9 hPa 0,0 l/m 0,2 km/h (0 Bft) SW 225 0 min 0,0 UV-I 3,5 C 6,4 C 1,8 km/h (1 Bft)
16.10.2012 19:55 7,4 C 15,2 C 7,2 C 7,0 C 6,3 C 0,0 C 77 % 82 % 0 % 1012,9 hPa 0,0 l/m 0,2 km/h (0 Bft) W 270 0 min 0,0 UV-I 3,6 C 6,3 C 0,0 km/h (0 Bft)
16.10.2012 20:00 7,3 C 15,2 C 7,2 C 7,0 C 6,5 C 0,0 C 78 % 82 % 0 % 1013,0 hPa 0,0 l/m 0,0 km/h (0 Bft) W 270 0 min 0,0 UV-I 3,7 C 6,5 C 0,0 km/h (0 Bft)
16.10.2012 20:05 7,3 C 15,2 C 7,3 C 7,1 C 6,7 C 0,0 C 78 % 83 % 0 % 1013,0 hPa 0,0 l/m 0,6 km/h (0 Bft) W 270 0 min 0,0 UV-I 3,7 C 6,7 C 1,6 km/h (1 Bft)
16.10.2012 20:10 7,2 C 15,2 C 7,3 C 7,1 C 6,8 C 0,0 C 79 % 83 % 0 % 1013,0 hPa 0,0 l/m 0,6 km/h (0 Bft) SW 225 0 min 0,0 UV-I 3,8 C 6,8 C 0,0 km/h (0 Bft)
16.10.2012 20:15 7,2 C 15,2 C 7,3 C 7,1 C 6,8 C 0,0 C 79 % 83 % 0 % 1013,0 hPa 0,0 l/m 0,6 km/h (0 Bft) SW 225 0 min 0,0 UV-I 3,8 C 6,8 C 0,0 km/h (0 Bft)
16.10.2012 20:20 7,1 C 15,2 C 7,3 C 7,1 C 7,1 C 0,0 C 79 % 83 % 0 % 1013,0 hPa 0,0 l/m 0,0 km/h (0 Bft) NW 315 0 min 0,0 UV-I 3,7 C 7,1 C 0,0 km/h (0 Bft)
16.10.2012 20:25 7,1 C 15,2 C 7,3 C 7,1 C 7,1 C 0,0 C 79 % 83 % 0 % 1013,0 hPa 0,0 l/m 0,0 km/h (0 Bft) NW 315 0 min 0,0 UV-I 3,7 C 7,1 C 0,0 km/h (0 Bft)
16.10.2012 20:30 7,0 C 15,2 C 7,6 C 7,7 C 7,7 C 0,7 C 79 % 83 % 0 % 1013,0 hPa 0,0 l/m 0,0 km/h (0 Bft) O-NO 67 0 min 0,0 UV-I 3,6 C 7,7 C 0,0 km/h (0 Bft)
16.10.2012 20:35 7,2 C 15,2 C 7,8 C 8,0 C 8,0 C 0,8 C 79 % 83 % 0 % 1013,0 hPa 0,0 l/m 0,2 km/h (0 Bft) N-NO 22 0 min 0,0 UV-I 3,8 C 8,0 C 0,0 km/h (0 Bft)
16.10.2012 20:40 7,2 C 15,1 C 7,8 C 8,0 C 8,0 C 0,8 C 79 % 83 % 0 % 1013,3 hPa 0,0 l/m 0,0 km/h (0 Bft) SW 225 0 min 0,0 UV-I 3,8 C 8,0 C 0,0 km/h (0 Bft)
16.10.2012 20:45 7,2 C 15,2 C 7,9 C 7,9 C 7,9 C 0,7 C 79 % 83 % 0 % 1013,3 hPa 0,0 l/m 0,3 km/h (0 Bft) W-SW 247 0 min 0,0 UV-I 3,8 C 7,9 C 0,0 km/h (0 Bft)
16.10.2012 20:50 7,3 C 15,2 C 7,7 C 7,8 C 7,8 C 0,5 C 79 % 83 % 0 % 1013,3 hPa 0,0 l/m 0,3 km/h (0 Bft) W 270 0 min 0,0 UV-I 3,9 C 7,8 C 0,0 km/h (0 Bft)
16.10.2012 20:55 7,2 C 15,2 C 7,7 C 7,8 C 7,8 C 0,6 C 79 % 83 % 0 % 1013,3 hPa 0,0 l/m 0,0 km/h (0 Bft) W-SW 247 0 min 0,0 UV-I 3,8 C 7,8 C 0,0 km/h (0 Bft)
16.10.2012 21:00 7,2 C 15,2 C 7,9 C 7,8 C 7,8 C 0,6 C 80 % 83 % 0 % 1013,7 hPa 0,0 l/m 0,0 km/h (0 Bft) NW 315 0 min 0,0 UV-I 4,0 C 7,8 C 0,0 km/h (0 Bft)
16.10.2012 21:05 7,2 C 15,2 C 7,9 C 7,8 C 7,8 C 0,6 C 80 % 83 % 0 % 1013,7 hPa 0,0 l/m 0,0 km/h (0 Bft) NW 315 0 min 0,0 UV-I 4,0 C 7,8 C 0,0 km/h (0 Bft)
16.10.2012 21:10 7,2 C 15,2 C 7,8 C 7,9 C 7,9 C 0,7 C 80 % 83 % 0 % 1013,7 hPa 0,0 l/m 0,0 km/h (0 Bft) S-SW 202 0 min 0,0 UV-I 4,0 C 7,9 C 0,0 km/h (0 Bft)
16.10.2012 21:15 7,2 C 15,2 C 7,8 C 7,9 C 7,9 C 0,7 C 80 % 83 % 0 % 1013,7 hPa 0,0 l/m 0,0 km/h (0 Bft) S-SW 202 0 min 0,0 UV-I 4,0 C 7,9 C 0,0 km/h (0 Bft)
16.10.2012 21:20 7,3 C 15,2 C 7,9 C 7,8 C 7,8 C 0,5 C 80 % 83 % 0 % 1013,4 hPa 0,0 l/m 0,2 km/h (0 Bft) SO 135 0 min 0,0 UV-I 4,1 C 7,8 C 2,3 km/h (1 Bft)
16.10.2012 21:25 7,5 C 15,1 C 7,9 C 7,9 C 7,9 C 0,4 C 80 % 83 % 0 % 1013,4 hPa 0,0 l/m 0,5 km/h (0 Bft) W-SW 247 0 min 0,0 UV-I 4,3 C 7,9 C 1,8 km/h (1 Bft)
16.10.2012 21:30 7,5 C 15,1 C 8,0 C 8,0 C 8,0 C 0,5 C 80 % 83 % 0 % 1013,4 hPa 0,0 l/m 1,0 km/h (0 Bft) O-SO 112 0 min 0,0 UV-I 4,3 C 8,0 C 3,4 km/h (1 Bft)
16.10.2012 21:35 7,6 C 15,1 C 8,1 C 8,3 C 8,3 C 0,7 C 80 % 83 % 0 % 1013,4 hPa 0,0 l/m 1,0 km/h (0 Bft) SW 225 0 min 0,0 UV-I 4,4 C 8,3 C 2,6 km/h (1 Bft)
16.10.2012 21:40 7,9 C 15,1 C 8,1 C 8,4 C 8,4 C 0,5 C 79 % 83 % 0 % 1013,6 hPa 0,0 l/m 1,1 km/h (1 Bft) S-SO 157 0 min 0,0 UV-I 4,5 C 8,4 C 3,7 km/h (1 Bft)
16.10.2012 21:45 8,0 C 15,1 C 8,3 C 8,6 C 8,6 C 0,6 C 79 % 83 % 0 % 1013,6 hPa 0,0 l/m 0,8 km/h (0 Bft) S-SW 202 0 min 0,0 UV-I 4,6 C 8,6 C 0,0 km/h (0 Bft)
16.10.2012 21:50 8,1 C 15,1 C 8,2 C 8,8 C 8,8 C 0,7 C 78 % 83 % 0 % 1013,6 hPa 0,0 l/m 0,8 km/h (0 Bft) S 180 0 min 0,0 UV-I 4,5 C 8,8 C 0,0 km/h (0 Bft)
16.10.2012 21:55 8,3 C 15,1 C 8,5 C 8,9 C 8,9 C 0,6 C 78 % 82 % 0 % 1013,6 hPa 0,0 l/m 0,6 km/h (0 Bft) SW 225 0 min 0,0 UV-I 4,7 C 8,9 C 0,0 km/h (0 Bft)
16.10.2012 22:00 8,4 C 15,1 C 8,4 C 8,9 C 8,9 C 0,5 C 78 % 82 % 0 % 1013,8 hPa 0,0 l/m 0,5 km/h (0 Bft) SW 225 0 min 0,0 UV-I 4,8 C 8,9 C 0,0 km/h (0 Bft)
16.10.2012 22:05 8,5 C 15,1 C 8,4 C 8,9 C 8,9 C 0,4 C 77 % 82 % 0 % 1013,8 hPa 0,0 l/m 0,2 km/h (0 Bft) NO 45 0 min 0,0 UV-I 4,7 C 8,9 C 0,0 km/h (0 Bft)
16.10.2012 22:10 8,4 C 15,1 C 8,4 C 8,9 C 8,9 C 0,5 C 77 % 82 % 0 % 1013,8 hPa 0,0 l/m 0,5 km/h (0 Bft) W 270 0 min 0,0 UV-I 4,6 C 8,9 C 3,9 km/h (1 Bft)
16.10.2012 22:15 8,7 C 15,1 C 8,6 C 9,1 C 9,1 C 0,4 C 77 % 82 % 0 % 1013,8 hPa 0,0 l/m 1,1 km/h (1 Bft) O-SO 112 0 min 0,0 UV-I 4,9 C 9,1 C 3,5 km/h (1 Bft)
16.10.2012 22:20 8,9 C 15,1 C 8,7 C 9,3 C 9,3 C 0,4 C 76 % 82 % 0 % 1014,2 hPa 0,0 l/m 1,4 km/h (1 Bft) S-SW 202 0 min 0,0 UV-I 4,9 C 9,3 C 2,9 km/h (1 Bft)
16.10.2012 22:25 8,9 C 15,1 C 8,9 C 9,3 C 9,3 C 0,4 C 76 % 81 % 0 % 1014,2 hPa 0,0 l/m 1,1 km/h (1 Bft) S-SO 157 0 min 0,0 UV-I 4,9 C 9,3 C 3,2 km/h (1 Bft)
16.10.2012 22:30 9,1 C 15,1 C 8,8 C 9,4 C 9,4 C 0,3 C 75 % 81 % 0 % 1014,2 hPa 0,0 l/m 0,8 km/h (0 Bft) NW 315 0 min 0,0 UV-I 4,9 C 9,4 C 0,0 km/h (0 Bft)
16.10.2012 22:35 9,1 C 15,1 C 8,9 C 9,4 C 9,4 C 0,3 C 75 % 81 % 0 % 1014,2 hPa 0,0 l/m 0,5 km/h (0 Bft) SW 225 0 min 0,0 UV-I 4,9 C 9,4 C 0,0 km/h (0 Bft)
16.10.2012 22:40 9,2 C 15,1 C 9,0 C 9,5 C 9,5 C 0,3 C 75 % 81 % 0 % 1014,0 hPa 0,0 l/m 0,2 km/h (0 Bft) O-NO 67 0 min 0,0 UV-I 5,0 C 9,5 C 0,0 km/h (0 Bft)
16.10.2012 22:45 9,2 C 15,1 C 9,0 C 9,6 C 9,6 C 0,4 C 74 % 80 % 0 % 1014,0 hPa 0,0 l/m 0,3 km/h (0 Bft) S 180 0 min 0,0 UV-I 4,8 C 9,6 C 2,9 km/h (1 Bft)
16.10.2012 22:50 9,3 C 15,0 C 9,1 C 9,6 C 9,6 C 0,3 C 74 % 80 % 0 % 1014,0 hPa 0,0 l/m 0,2 km/h (0 Bft) SW 225 0 min 0,0 UV-I 4,9 C 9,6 C 1,6 km/h (1 Bft)
16.10.2012 22:55 9,3 C 15,0 C 9,1 C 9,6 C 9,6 C 0,3 C 74 % 80 % 0 % 1014,0 hPa 0,0 l/m 0,3 km/h (0 Bft) W-NW 292 0 min 0,0 UV-I 4,9 C 9,6 C 0,0 km/h (0 Bft)
16.10.2012 23:00 9,3 C 15,0 C 9,1 C 9,4 C 9,4 C 0,1 C 73 % 80 % 0 % 1014,2 hPa 0,0 l/m 0,3 km/h (0 Bft) O-SO 112 0 min 0,0 UV-I 4,7 C 9,4 C 0,0 km/h (0 Bft)
16.10.2012 23:05 9,3 C 15,0 C 9,0 C 9,3 C 9,3 C 0,0 C 73 % 79 % 0 % 1014,2 hPa 0,0 l/m 0,6 km/h (0 Bft) S-SO 157 0 min 0,0 UV-I 4,7 C 9,3 C 2,3 km/h (1 Bft)
16.10.2012 23:10 9,5 C 15,0 C 9,1 C 9,4 C 9,3 C 0,0 C 74 % 80 % 0 % 1014,2 hPa 0,0 l/m 1,0 km/h (0 Bft) SW 225 0 min 0,0 UV-I 5,1 C 9,3 C 0,0 km/h (0 Bft)
16.10.2012 23:15 9,5 C 15,0 C 9,2 C 9,5 C 9,5 C 0,0 C 74 % 79 % 0 % 1014,2 hPa 0,0 l/m 1,3 km/h (1 Bft) S 180 0 min 0,0 UV-I 5,1 C 9,5 C 1,6 km/h (1 Bft)
16.10.2012 23:20 9,5 C 15,0 C 9,2 C 9,6 C 9,6 C 0,1 C 74 % 79 % 0 % 1014,4 hPa 0,0 l/m 1,1 km/h (1 Bft) S 180 0 min 0,0 UV-I 5,1 C 9,6 C 1,9 km/h (1 Bft)
16.10.2012 23:25 9,5 C 15,0 C 9,2 C 9,6 C 9,6 C 0,1 C 73 % 79 % 0 % 1014,4 hPa 0,0 l/m 0,8 km/h (0 Bft) S 180 0 min 0,0 UV-I 4,9 C 9,6 C 0,0 km/h (0 Bft)
16.10.2012 23:30 9,5 C 15,0 C 9,3 C 9,5 C 9,5 C 0,0 C 73 % 79 % 0 % 1014,4 hPa 0,0 l/m 0,8 km/h (0 Bft) S 180 0 min 0,0 UV-I 4,9 C 9,5 C 2,1 km/h (1 Bft)
16.10.2012 23:35 9,5 C 15,0 C 9,2 C 9,5 C 9,4 C 0,0 C 73 % 78 % 0 % 1014,4 hPa 0,0 l/m 0,8 km/h (0 Bft) NW 315 0 min 0,0 UV-I 4,9 C 9,4 C 0,0 km/h (0 Bft)
16.10.2012 23:40 9,5 C 15,0 C 9,3 C 9,5 C 9,4 C 0,0 C 73 % 78 % 0 % 1014,5 hPa 0,0 l/m 1,3 km/h (1 Bft) N-NW 337 0 min 0,0 UV-I 4,9 C 9,4 C 0,0 km/h (0 Bft)
16.10.2012 23:45 9,7 C 15,0 C 9,3 C 9,6 C 9,4 C 0,0 C 73 % 78 % 0 % 1014,5 hPa 0,0 l/m 1,3 km/h (1 Bft) W-SW 247 0 min 0,0 UV-I 5,1 C 9,4 C 2,4 km/h (1 Bft)
16.10.2012 23:50 9,7 C 15,0 C 9,3 C 9,6 C 9,3 C 0,0 C 73 % 78 % 0 % 1014,5 hPa 0,0 l/m 0,6 km/h (0 Bft) S 180 0 min 0,0 UV-I 5,1 C 9,3 C 0,0 km/h (0 Bft)
16.10.2012 23:55 9,6 C 15,0 C 9,2 C 9,5 C 9,2 C 0,0 C 72 % 78 % 0 % 1014,5 hPa 0,0 l/m 1,0 km/h (0 Bft) S 180 0 min 0,0 UV-I 4,8 C 9,2 C 0,0 km/h (0 Bft)
_ Min-Zeit 08:15 12:25 08:55 07:55 08:05 00:30 16:20 16:50 00:00 18:25 - 00:55 - - - 00:00 08:15 08:05 00:00
Minimum _ 0,1 C 14,2 C 1,7 C 0,1 C -0,2 C 0,0 C 55 % 65 % 0 % 1012,0 hPa - 0,0 km/h (0 Bft) - - - 0,0 UV-I -1,5 C -0,2 C 0,0 km/h (0 Bft)
_ Max-Zeit 16:10 01:00 16:05 15:50 15:50 13:05 11:15 10:45 12:25 07:45 00:00 13:55 - - 12:55 13:00 15:40 15:50 11:30
Maximum _ 14,9 C 15,8 C 12,8 C 19,3 C 19,3 C 6,8 C 93 % 93 % 100 % 1015,1 hPa 0,0 l/m 5,3 km/h
S-SW (1 Bft)
- - 13 min 1,0 UV-I 6,3 C 19,3 C 14,0 km/h
S-SO (3 Bft)
Durchschnitt _ 6,4 C 15,1 C 6,8 C 7,5 C 7,4 C 1,2 C 79 % 83 % 24 % 1013,9 hPa #0,0 l/m 0,8 km/h (0 Bft) W-SW - #4:50 h 0,5 UV-I 2,8 C 7,4 C 1,2 km/h (1 Bft)
2012 www.wetterstation-wechselburg.de